EN

Hourly Weather Abrykosivka

Today, 28 November, Saturday

Time Temperature Precipitation Wind Pressure Humidity
00:00 +7°C° 0 mm 3 mps 753 mmHg 87%
01:00 +5°C° 0 mm 3 mps 753 mmHg 87%
02:00 +5°C° 0 mm 3 mps 753 mmHg 88%
03:00 +5°C° 0 mm 3 mps 753 mmHg 88%
04:00 +5°C° 0 mm 3 mps 752 mmHg 89%
05:00 +5°C° 0 mm 3 mps 752 mmHg 89%
06:00 +5°C° 0 mm 3 mps 752 mmHg 89%
07:00 +5°C° 0 mm 3 mps 752 mmHg 89%
08:00 +7°C° 0 mm 3 mps 752 mmHg 88%
09:00 +8°C° 0 mm 3 mps 752 mmHg 83%
10:00 +9°C° 0 mm 3 mps 752 mmHg 78%
11:00 +11°C° 0 mm 4 mps 752 mmHg 72%
12:00 +11°C° 0 mm 3 mps 752 mmHg 71%
13:00 +11°C° 0 mm 3 mps 752 mmHg 70%
14:00 +12°C° 0 mm 3 mps 751 mmHg 69%
15:00 +11°C° 0 mm 3 mps 751 mmHg 74%
16:00 +10°C° 0 mm 3 mps 751 mmHg 79%
17:00 +9°C° 0 mm 3 mps 751 mmHg 84%
18:00 +9°C° 0 mm 3 mps 751 mmHg 85%
19:00 +8°C° 0 mm 2 mps 751 mmHg 86%
20:00 +8°C° 0 mm 2 mps 751 mmHg 88%
21:00 +8°C° 0 mm 2 mps 751 mmHg 87%
22:00 +8°C° 0 mm 2 mps 751 mmHg 87%
23:00 +7°C° 0 mm 2 mps 751 mmHg 87%

Tomorrow, 29 November, Sunday

Time Temperature Precipitation Wind Pressure Humidity
00:00 +7°C° 0 mm 2 mps 751 mmHg 86%
01:00 +8°C° 0 mm 1 mps 751 mmHg 86%
02:00 +8°C° 0 mm 1 mps 751 mmHg 86%
03:00 +8°C° 0 mm 1 mps 751 mmHg 85%
04:00 +8°C° 0 mm 1 mps 751 mmHg 85%
05:00 +7°C° 0 mm 1 mps 751 mmHg 85%
06:00 +8°C° 0 mm 1 mps 751 mmHg 86%
07:00 +7°C° 0 mm 2 mps 751 mmHg 87%
08:00 +7°C° 0 mm 2 mps 752 mmHg 88%
09:00 +9°C° 0 mm 2 mps 752 mmHg 83%
10:00 +10°C° 0 mm 3 mps 752 mmHg 78%
11:00 +11°C° 0 mm 3 mps 752 mmHg 72%
12:00 +12°C° 0 mm 3 mps 752 mmHg 69%
13:00 +13°C° 0 mm 2 mps 752 mmHg 65%
14:00 +13°C° 0 mm 2 mps 752 mmHg 62%
15:00 +12°C° 0 mm 2 mps 752 mmHg 67%
16:00 +10°C° 0 mm 2 mps 752 mmHg 71%
17:00 +9°C° 0 mm 2 mps 752 mmHg 76%
18:00 +9°C° 0 mm 2 mps 752 mmHg 77%
19:00 +9°C° 0 mm 2 mps 752 mmHg 79%
20:00 +9°C° 0 mm 2 mps 752 mmHg 80%
21:00 +8°C° 0 mm 2 mps 752 mmHg 81%
22:00 +8°C° 0 mm 2 mps 752 mmHg 82%
23:00 +8°C° 0 mm 2 mps 752 mmHg 83%

Day after tomorrow, 30 November, Monday

Time Temperature Precipitation Wind Pressure Humidity
00:00 +8°C° 0 mm 2 mps 752 mmHg 81%
01:00 +8°C° 0 mm 2 mps 751 mmHg 79%
02:00 +8°C° 0 mm 2 mps 751 mmHg 77%
03:00 +8°C° 0 mm 2 mps 751 mmHg 76%
04:00 +8°C° 0 mm 2 mps 751 mmHg 75%
05:00 +8°C° 0 mm 2 mps 751 mmHg 74%
06:00 +8°C° 0 mm 2 mps 751 mmHg 75%
07:00 +8°C° 0 mm 2 mps 751 mmHg 75%
08:00 +8°C° 0 mm 3 mps 751 mmHg 76%
09:00 +9°C° 0 mm 3 mps 751 mmHg 70%
10:00 +10°C° 0 mm 3 mps 751 mmHg 64%
11:00 +11°C° 0 mm 3 mps 751 mmHg 58%
12:00 +11°C° 0 mm 3 mps 751 mmHg 57%
13:00 +11°C° 0 mm 3 mps 750 mmHg 56%
14:00 +11°C° 0 mm 4 mps 750 mmHg 54%
15:00 +10°C° 0 mm 4 mps 750 mmHg 60%
16:00 +7°C° 0 mm 4 mps 750 mmHg 66%
17:00 +6°C° 0 mm 4 mps 750 mmHg 71%
18:00 +7°C° 0 mm 3 mps 750 mmHg 73%
19:00 +5°C° 0 mm 3 mps 750 mmHg 74%
20:00 +5°C° 0 mm 3 mps 750 mmHg 76%
21:00 +5°C° 0 mm 3 mps 750 mmHg 77%
22:00 +5°C° 0 mm 3 mps 750 mmHg 78%
23:00 +5°C° 0 mm 3 mps 749 mmHg 79%

1 December, Tuesday

Time Temperature Precipitation Wind Pressure Humidity
00:00 +4°C° 0 mm 3 mps 749 mmHg 81%
01:00 +4°C° 0 mm 3 mps 749 mmHg 82%
02:00 +4°C° 0 mm 3 mps 749 mmHg 84%
03:00 +4°C° 0 mm 3 mps 749 mmHg 86%
04:00 +3°C° 0 mm 3 mps 749 mmHg 88%
05:00 +3°C° 0 mm 3 mps 749 mmHg 90%
06:00 +3°C° 0 mm 3 mps 749 mmHg 90%
07:00 +3°C° 0 mm 3 mps 750 mmHg 90%
08:00 +4°C° 0 mm 3 mps 750 mmHg 89%
09:00 +4°C° 0 mm 4 mps 750 mmHg 86%
10:00 +5°C° 0 mm 4 mps 750 mmHg 82%
11:00 +6°C° 0 mm 4 mps 750 mmHg 79%
12:00 +6°C° 0 mm 5 mps 750 mmHg 79%
13:00 +6°C° 0 mm 5 mps 750 mmHg 78%
14:00 +6°C° 0 mm 5 mps 750 mmHg 78%
15:00 +5°C° 0 mm 5 mps 750 mmHg 79%
16:00 +5°C° 0 mm 5 mps 750 mmHg 80%
17:00 +5°C° 0 mm 4 mps 750 mmHg 81%
18:00 +5°C° 0 mm 4 mps 750 mmHg 81%
19:00 +5°C° 0 mm 4 mps 750 mmHg 81%
20:00 +5°C° 0 mm 4 mps 751 mmHg 81%
21:00 +5°C° 0 mm 3 mps 751 mmHg 83%
22:00 +5°C° 0 mm 3 mps 751 mmHg 85%
23:00 +4°C° 0 mm 3 mps 751 mmHg 86%

2 December, Wednesday

Time Temperature Precipitation Wind Pressure Humidity
00:00 +4°C° 0 mm 3 mps 751 mmHg 88%
01:00 +5°C° 0 mm 2 mps 751 mmHg 90%
02:00 +4°C° 0 mm 2 mps 751 mmHg 91%
03:00 +4°C° 0 mm 2 mps 751 mmHg 91%
04:00 +4°C° 0 mm 2 mps 751 mmHg 91%
05:00 +4°C° 0 mm 2 mps 751 mmHg 92%
06:00 +4°C° 0 mm 2 mps 752 mmHg 90%
07:00 +4°C° 0 mm 2 mps 752 mmHg 89%
08:00 +4°C° 0 mm 2 mps 752 mmHg 87%
09:00 +7°C° 0 mm 1 mps 752 mmHg 82%
10:00 +8°C° 0 mm 1 mps 752 mmHg 76%
11:00 +9°C° 0 mm 1 mps 752 mmHg 71%
12:00 +9°C° 0 mm 2 mps 752 mmHg 71%
13:00 +9°C° 0 mm 2 mps 752 mmHg 72%
14:00 +9°C° 0 mm 2 mps 752 mmHg 72%
15:00 +8°C° 0 mm 2 mps 752 mmHg 78%
16:00 +8°C° 0 mm 2 mps 752 mmHg 84%
17:00 +7°C° 0 mm 2 mps 752 mmHg 90%
18:00 +7°C° 0 mm 2 mps 752 mmHg 90%
19:00 +7°C° 0 mm 2 mps 752 mmHg 89%
20:00 +6°C° 0 mm 2 mps 753 mmHg 89%
21:00 +6°C° 0 mm 2 mps 753 mmHg 88%
22:00 +6°C° 0 mm 2 mps 753 mmHg 88%
23:00 +6°C° 0 mm 2 mps 753 mmHg 87%

3 December, Thursday

Time Temperature Precipitation Wind Pressure Humidity
00:00 +6°C° 0 mm 2 mps 753 mmHg 87%
01:00 +6°C° 0 mm 2 mps 753 mmHg 87%
02:00 +6°C° 0 mm 2 mps 753 mmHg 87%
03:00 +5°C° 0 mm 2 mps 753 mmHg 88%
04:00 +5°C° 0 mm 2 mps 753 mmHg 89%
05:00 +5°C° 0 mm 2 mps 753 mmHg 90%
06:00 +5°C° 0 mm 2 mps 753 mmHg 90%
07:00 +5°C° 0 mm 2 mps 753 mmHg 90%
08:00 +5°C° 0 mm 2 mps 754 mmHg 90%
09:00 +6°C° 0 mm 2 mps 754 mmHg 84%
10:00 +7°C° 0 mm 2 mps 754 mmHg 78%
11:00 +8°C° 0 mm 3 mps 754 mmHg 73%
12:00 +8°C° 0 mm 3 mps 754 mmHg 73%
13:00 +9°C° 0 mm 3 mps 753 mmHg 73%
14:00 +9°C° 0 mm 3 mps 753 mmHg 73%
15:00 +8°C° 0 mm 3 mps 753 mmHg 78%
16:00 +7°C° 0 mm 3 mps 753 mmHg 82%
17:00 +5°C° 0 mm 3 mps 753 mmHg 87%
18:00 +5°C° 0 mm 3 mps 753 mmHg 88%
19:00 +5°C° 0 mm 2 mps 753 mmHg 89%
20:00 +5°C° 0 mm 2 mps 753 mmHg 90%
21:00 +5°C° 0 mm 2 mps 753 mmHg 90%
22:00 +5°C° 0 mm 2 mps 753 mmHg 90%
23:00 +5°C° 0 mm 2 mps 753 mmHg 90%
Show more